Regional Weather Roundup
Issued by NWS

Home | Current Version | Previous Version | Graphics & Text | Print | Product List | Glossary On
Versions: 1 2 3 4 5 6 7 8 9 10 11 12 13 14 15 16 17 18 19 20 21 22 23 24 25 26 27 28 29 30 31 32 33 34 35 36 37 38 39 40 41 42 43 44 45 46 47 48 49 50
000
ASUS43 KFSD 191102
RWRSD

WEATHER ROUNDUP FOR SOUTH DAKOTA
NATIONAL WEATHER SERVICE SIOUX FALLS SD
600 AM CDT THU OCT 19 2017

NOTE: "FAIR" INDICATES FEW OR NO CLOUDS BELOW 12,000 FEET WITH NO
SIGNIFICANT WEATHER AND/OR OBSTRUCTIONS TO VISIBILITY.


SDZ001>005-009-010-012>017-191200-
NORTHWEST AND NORTH CENTRAL SOUTH DAKOTA

CITY           SKY/WX    TMP DP  RH WIND       PRES   REMARKS
BUFFALO          N/A     45  27  49 CALM      29.77S
FAITH            N/A     45  32  60 S17       29.82F
MOBRIDGE       CLOUDY    49  36  61 S13       29.83F
$$

SDZ012>016-024>037-041>051-057-063-072>074-191200-
SOUTHWEST AND SOUTH CENTRAL SOUTH DAKOTA

CITY           SKY/WX    TMP DP  RH WIND       PRES   REMARKS
RAPID CTY ARPT CLOUDY    47  26  44 VRB3      29.87F
PIERRE         CLOUDY    46  35  65 SE13      29.89F
CUSTER         CLOUDY    53  14  21 W9        29.97F
ELLSWORTH AFB  CLOUDY    47  26  43 SW7       29.86F
PHILIP         CLOUDY    56  36  47 SW13      29.86F
PINE RIDGE     CLEAR     52  33  48 SW12      29.95F
SPEARFISH      FAIR      59  19  21 VRB3      29.88S
WINNER         FAIR      52  36  54 S23G30    29.95F
$$

SDZ004>011-016>023-039-040-191200-
NORTHEAST SOUTH DAKOTA

CITY           SKY/WX    TMP DP  RH WIND       PRES   REMARKS
ABERDEEN       CLOUDY    39  31  72 S9        29.93S
WATERTOWN      CLOUDY    40  32  73 S9        29.98S
BROOKINGS      CLOUDY    39  31  72 SE3       30.03R
SISSETON         N/A     40  32  73 E6        29.93S
$$

SDZ017-020-022-023-036>040-048>070-191200-
SOUTHEAST SOUTH DAKOTA

CITY           SKY/WX    TMP DP  RH WIND       PRES   REMARKS
SIOUX FALLS    CLOUDY    37  34  89 NE6       30.04S
HURON          CLOUDY    40  31  70 SE8       29.97F
CHAMBERLAIN    CLOUDY    47  38  69 S10       29.97S
MITCHELL       CLOUDY    48  30  49 S9        30.00F
YANKTON        CLOUDY    41  35  79 E5        30.03F
$$

ABBREVIATIONS USED IN REMARKS
   TC - TEMPERATURE IN CELSIUS
  WCI - WIND CHILL INDEX
   HX - HEAT INDEX
  VSB - VISIBILITY





USA.gov is the U.S. government's official web portal to all federal, state and local government web resources and services.